Location: Stoke Bliss
(52.2667°N, 2.5167°W)
Time: 13:21:53
(UTC+00:00)

Cosmos 2237 - Pass Details

Date: 03 March 2021
Orbit: 845 x 857 km, 70.9° (Epoch: 12 April)

Event Time Altitude Azimuth Distance (km) Brightness Sun altitude
Rises 19:50:51 0° 213° (SSW) 3,413 7.6 -18.6°
Reaches altitude 10° 19:53:17 10° 215° (SW) 2,482 6.9 -19.0°
Maximum altitude 19:59:01 79° 302° (WNW) 878 4.3 -19.8°
Drops below altitude 10° 20:04:47 10° 30° (NNE) 2,502 6.5 -20.7°
Sets 20:07:16 0° 32° (NNE) 3,442 7.2 -21.1°
